Regional Weather Roundup
Issued by NWS San Diego, CA

Home | Current Version | Previous Version | Text Only | Print | Product List | Glossary On
Versions: 1 2 3 4 5 6 7 8 9 10 11 12 13 14 15 16 17 18 19 20 21 22 23 24 25 26 27 28 29 30 31 32 33 34 35 36 37 38 39 40 41 42 43 44 45 46 47 48 49 50
000
ASUS46 KSGX 211211
RWRSGX

SAN DIEGO HOURLY WEATHER ROUNDUP
NATIONAL WEATHER SERVICE SAN DIEGO CA
400 AM PST SUN JAN 21 2018

NOTE: "FAIR" INDICATES FEW OR NO CLOUDS BELOW 12,000 FEET WITH NO
SIGNIFICANT WEATHER AND/OR OBSTRUCTIONS TO VISIBILITY.

CAZ042-043-060-061-PZZ750-775-211300-

GREATER SAN DIEGO AREA

CITY           SKY/WX    TMP DP  RH WIND       PRES   REMARKS
SAN DIEGO AP   CLEAR     50  41  71 CALM      30.21S
NATIONAL CITY    N/A     47  41  78 CALM      30.22F
CHULA VISTA      N/A     46  42  86 CALM      30.11S
IMPERIAL BEACH CLEAR     49  40  71 E9        30.20S
BROWN FIELD    CLEAR     46  39  76 SE9       30.19S
MIRAMAR MCAS   CLEAR     48  40  73 E8        30.18S
MONTGOMERY FLD CLEAR     45  39  79 E5        30.19S
GILLESPIE FLD  MOCLDY    39  37  93 W3        30.20S

$$

NORTH SAN DIEGO COUNTY

CITY           SKY/WX    TMP DP  RH WIND       PRES   REMARKS
CAMP PENDLETON CLEAR     35  33  92 CALM      30.20F
OCEANSIDE AP   CLEAR     38  35  89 CALM      30.20S
OCEANSIDE HBR    N/A     44  39  82 NE1       30.22F
VISTA            N/A     41  37  84 CALM      30.18S
CARLSBAD       CLEAR     47  40  76 NE3       30.18S
DEL MAR          N/A     48  42  78 CALM      30.21S
LA JOLLA SCRIP   N/A     48  43  81 E7        30.19S
FALLBROOK        N/A     46  41  80 E1        30.21S
ESCONDIDO        N/A     42  36  80 CALM      30.22S
SAN MARCOS       N/A     45  39  79 CALM      30.23S
POWAY            N/A     40  36  87 CALM      30.23R

$$

EAST SAN DIEGO COUNTY

CITY           SKY/WX    TMP DP  RH WIND       PRES   REMARKS
RAMONA         CLEAR     34  33  96 E5        30.19S FOG     WCI  30
SANTEE LAKES     N/A     40  37  91 CALM      30.20S
LA MESA          N/A     45  40  83 CALM      30.14S
JAMUL            N/A     40  38  91 CALM      30.21S
DESCANSO N       N/A     29  22  75 NE3       30.19S
MT. LAGUNA OBS   N/A     27  19  73 NW2       30.24F
CAMPO            N/A     29  28  96 E7        30.14S WCI  22

$$

ORANGE COUNTY AND THE LOS ANGELES BASIN

CITY           SKY/WX    TMP DP  RH WIND       PRES   REMARKS
JOHN WAYNE AP  CLEAR     44  31  60 CALM      30.20R
LAGUNA BEACH     N/A     39  32  75 CALM      30.15R
LAKE FOREST FR   N/A     44  19  36 CALM      30.08S
HUNTINGTON BCH   N/A     39  32  75 CALM      30.21R
LOS ALAMITOS   FAIR      38  28  67 CALM      30.19S
FULLERTON      CLEAR     41  30  65 CALM      30.19S
LONG BEACH     CLEAR     45  29  53 CALM      30.20R
L.A. AP        CLEAR     47  26  44 CALM      30.20S
L.A. DOWNTOWN  CLEAR     46  25  43 E3        30.19S

$$

THE INLAND EMPIRE

CITY           SKY/WX    TMP DP  RH WIND       PRES   REMARKS
CORONA         CLEAR     35  30  82 CALM      30.21S
CHINO          CLEAR     42  30  62 CALM      30.21S
ONTARIO        CLEAR     40  27  59 NW5       30.19S
SAN BERNARDINO FAIR      41  28  58 NE3       30.20S
RIVERSIDE AP   CLEAR     38  30  73 SE3       30.20S
MORENO VALLEY    N/A     39  35  86 E3        28.29S
MARCH ARB      CLEAR     30  29  99 CALM      30.18S
HORSETHIEF CYN   N/A     38  26  63 CALM      30.22R
PERRIS           N/A     38  35  87 CALM      30.17S
HEMET EAST       N/A     38  19  46 CALM      30.28R
FRENCH VALLEY  FAIR      36  32  87 CALM      30.20S
TEMECULA         N/A     37  35  93 CALM      30.28R

$$

SAN BERNARDINO AND RIVERSIDE COUNTY MOUNTAINS

CITY           SKY/WX    TMP DP  RH WIND       PRES   REMARKS
BIG BEAR AP    CLEAR     10   7  85 CALM      30.14S
ANGELUS OAKS     N/A     29  13  52 CALM      30.23R

$$

SOUTHERN DESERT INCLUDING THE COACHELLA VALLEY

CITY           SKY/WX    TMP DP  RH WIND       PRES   REMARKS
PALM SPRINGS   CLEAR     49  27  42 NW6       30.20R
THOUSAND PALMS   N/A     50  25  37 NW2       30.16R
PALM DESERT      N/A     42  30  61 CALM      32.01S
THERMAL        CLEAR     39  24  55 NE3       30.18R
BLYTHE         CLEAR     41  22  46 NW7       30.17R
IMPERIAL AP    CLEAR     43  28  55 W6        30.17R
EL CENTRO NAS  CLEAR     43  24  47 W7        30.19S
YUMA AZ        CLEAR     45  33  63 CALM      30.17R

$$

UPPER DESERT

CITY           SKY/WX    TMP DP  RH WIND       PRES   REMARKS
VICTORVILLE AP CLEAR     27  16  63 CALM      30.22S
HESPERIA         N/A     30  20  67 CALM      30.42S
APPLE VALLEY     N/A     24  20  87 SE2       30.33R
PALMDALE       CLEAR     30  21  69 S6        30.23R WCI  24
LANCASTER      CLEAR     32  25  75 NW5       30.23R WCI  27
EDWARDS AFB    CLEAR     27  17  64 CALM      30.21S
DAGGETT        CLEAR     32  22  66 W6        30.23R WCI  26
29 PALMS N     CLEAR     39  19  44 NW7       30.26S WCI  34
NEEDLES        CLEAR     46  17  31 N8        30.17R

$$

REGIONAL REPORTS

CITY           SKY/WX    TMP DP  RH WIND       PRES   REMARKS
SANTA BARBARA  CLEAR     48  26  42 E7        30.19S
SANDBERG       CLEAR     32  22  66 N10       30.19S WCI  24
LAS VEGAS NV   CLEAR     43  13  29 N10       30.16R
PHOENIX AZ     CLEAR     42  31  64 SW5       30.08R
TIJUANA        CLEAR     46  41  81 E2        30.22S
ENSENADA NW      N/A     50  32  49 CALM      30.14S

$$

OFFSHORE ISLANDS

CITY           SKY/WX    TMP DP  RH WIND       PRES   REMARKS
CATALINA ARPT    N/A     47  32  56 N8        30.18S
SAN NICOLAS IS CLEAR     51  32  48 NW13      30.19S

$$

MARINE AND OFFSHORE BUOY REPORTS

STATION/POSITION SKY/WX   TEMP    WIND        PRES    VSBY  SWELL
                          AIR SEA DIR/SP/G                  HT/PER/DIR
                          (F)     (DEG/KT/KT) (MB)    (MI)  (FT/S/D)
TANNER BANKS               57 59              1022.5F
S CLEMENTE BASIN           59 61  360/  6/  8 1022.3F        10/270/14
SAN NICOLAS IS.               58                N/A           8/290/13
SO. S. ROSA ISLA           55 57  310/ 21/ 23 1022.2S        10/310/14
W. S. BARBARA CH           54 58  330/ 19/ 25 1023.0
M. S. BARBARA CH           56 59  320/  8/ 12 1023.1
S. MONICA BASIN               60   50/  6/  8 1021.9
S PEDRO CHANNEL               60                N/A           3/270/14
CMP PENDLETON NS              60                N/A           2/250/13
OCEANSIDE OFFSHR              60                N/A           3/270/11
TORREY PINES OTR              61                N/A           3/280/14
SAN DIEGO BAY                 64              1023.0F
POINT LOMA SOUTH              61                N/A           5/280/14

$$




USA.gov is the U.S. government's official web portal to all federal, state and local government web resources and services.